User: anonymous   Login
Location: Montague
(41.3030°N, 74.7940°W)
Time: 08:15:43
(UTC-04:00)
Language:

Cosmos 1461 - Orbit

View from above orbital plane
View from above orbital plane
View from above satellite
View from above satellite

Ground track
Ground track

The orbit data is extracted from the following two-line orbital elements,

1 14064U 83044A   16176.84688995  .00000885  00000-0  90839-4 0  9996
2 14064  65.0020 309.9192 0108016 196.7713 162.9822 14.93043386669993
Epoch (UTC): 24 June 2016 20:19:31
Eccentricity: 0.0108016
inclination: 65.0020°
perigee height: 513 km
apogee height: 664 km
right ascension of ascending node: 309.9192°
argument of perigee: 196.7713°
revolutions per day: 14.93043386
mean anomaly at epoch: 162.9822°
orbit number at epoch: 66999

The dashed part of the orbit path shows where the satellite is in the earth's shadow,  

DLR